Location: Tierra del Sol
(32.6128°N, 116.3319°W)
Time: 03:45:25
(UTC-07:00)

OTV 5 (USA 277) - Pass Details

Date: 11 October 2017
Orbit: 404 x 417 km, 43.0° (Epoch: 07 September)

Event Time Altitude Azimuth Distance (km) Brightness Sun altitude
Rises 18:57:19 0° 258° (WSW) 2,346 ? -9.3°
Reaches altitude 10° 18:59:31 10° 267° (W) 1,485 ? -9.8°
Maximum altitude 19:02:39 36° 336° (NNW) 673 ? -10.5°
Drops below altitude 10° 19:05:48 10° 45° (NE) 1,488 ? -11.1°
Enters shadow 19:05:49 10° 45° (NE) 1,489 ? -11.1°
